Overview Statistics Trail Chart Weather Telemetry Raw packets
 

This is the latest recevied weather packets stored in our database for station/object KO4DYK. If no packets are shown the sender has not sent any weather packets the latest 10 day(s).

<< 96 97 98 99 100 101 102 >>
Time Temp. Humidity Pressure Rain* Wind** Luminosity Snow
1787935524 30° C 54% 1021 hPa 0 mm - 670 W/m² -
1787935220 30.56° C 55% 1021.1 hPa 0 mm - 678 W/m² -
1787934916 30.56° C 55% 1021.1 hPa 0 mm - 684 W/m² -
1787934615 30° C 57% 1021.2 hPa 0 mm - 658 W/m² -
1787934309 30° C 56% 1021.2 hPa 0 mm - 626 W/m² -
1787934009 29.44° C 58% 1021.1 hPa 0 mm - 670 W/m² -
1787933708 30° C 60% 1021.2 hPa 0 mm - 690 W/m² -
1787933404 30° C 60% 1021.2 hPa 0 mm - 667 W/m² -
1787933103 30.56° C 58% 1021.3 hPa 0 mm - 613 W/m² -
1787932801 29.44° C 61% 1021.3 hPa 0 mm - 615 W/m² -
1787932497 28.89° C 62% 1021.2 hPa 0 mm - 652 W/m² -
1787932192 28.33° C 61% 1021.3 hPa 0 mm - 654 W/m² -
1787931890 28.89° C 65% 1021.1 hPa 0 mm - 638 W/m² -
1787931585 28.89° C 67% 1021.2 hPa 0 mm - 610 W/m² -
1787931280 28.33° C 68% 1021 hPa 0 mm - 671 W/m² -
1787930979 28.89° C 67% 1020.9 hPa 0 mm - 660 W/m² -
1787930679 28.89° C 66% 1020.9 hPa 0 mm - 596 W/m² -
1787930374 28.33° C 69% 1021.2 hPa 0 mm - 560 W/m² -
1787930069 27.78° C 72% 1021 hPa 0 mm - 556 W/m² -
1787929767 27.22° C 73% 1021.2 hPa 0 mm - 557 W/m² -
1787929462 26.67° C 72% 1020.9 hPa 0 mm - 538 W/m² -
1787929160 26.67° C 76% 1021 hPa 0 mm - 476 W/m² -
1787928855 26.67° C 76% 1020.9 hPa 0 mm - 500 W/m² -
1787928554 26.11° C 77% 1021 hPa 0 mm - 494 W/m² -
1787928254 26.11° C 80% 1020.9 hPa 0 mm - 496 W/m² -

* Rain latest hour (hover to see other rain measurements)
** Current wind speed in m/s (hover to see current wind gust speed)